Theta_e
307 309 311 312 313 313 313 313 314 314 314 314 315 315 315 315 313 309 309 315 310 304 305 309 309 306 305 303 300 300 299 297 296 292 292 290 288 292 292 293 290 289 287 287 288 289 288 307 309 301 304 314 319 321
308 310 311 312 313 313 313 313 313 313 313 314 315 315 315 315 315 312 305 314 316 307 305 310 307 311 311 310 305 302 298 298 296 292 292 294 291 291 288 288 294 292 293 291 292 291 298 307 308 312 314 315 314 316
308 310 310 312 312 312 312 313 313 313 313 314 315 315 315 315 315 312 307 311 310 305 304 305 304 309 309 310 313 303 300 304 302 301 296 296 292 293 289 291 293 297 301 298 299 302 306 311 313 314 313 314 314 317
308 310 310 311 312 312 312 312 312 313 314 315 314 314 315 314 314 314 308 310 309 304 298 301 307 302 309 308 310 312 306 305 303 301 299 297 293 297 292 294 295 298 302 299 300 304 309 311 312 313 312 314 314 314
308 309 309 311 311 312 312 312 312 313 314 314 314 314 314 314 313 313 311 311 312 305 298 299 302 304 305 309 309 310 308 306 304 299 299 293 296 295 294 298 294 297 297 297 297 306 308 311 312 314 311 310 311 311
308 309 309 311 311 311 312 312 311 312 313 312 312 312 313 313 312 310 303 310 312 311 302 294 304 303 306 307 308 307 307 307 305 302 300 301 301 300 294 293 300 299 301 305 303 309 306 312 312 313 310 310 312 311
307 309 310 311 311 311 311 311 311 311 311 311 311 311 311 311 310 304 301 307 311 313 301 295 296 304 307 307 304 304 308 308 306 303 300 299 299 300 293 288 297 300 301 302 308 308 306 310 308 311 312 312 312 311
307 309 310 311 311 311 311 310 310 311 311 311 310 310 310 310 309 306 310 310 312 306 303 294 296 300 309 303 301 307 304 306 304 302 301 299 297 296 292 297 298 303 306 306 306 306 309 307 308 308 311 311 309 309
308 309 310 311 311 310 310 310 311 311 310 309 310 310 307 307 304 306 314 314 312 305 298 297 294 293 307 304 305 304 304 298 303 299 298 299 296 290 295 297 300 303 304 302 304 305 307 306 306 308 309 309 308 307
308 309 310 310 310 310 310 310 310 310 308 309 306 302 298 306 315 313 308 302 303 302 302 297 302 296 302 301 300 300 302 297 293 298 299 293 293 297 298 301 304 305 304 305 302 299 302 302 304 304 306 306 307 307
309 309 310 310 310 310 310 310 309 308 306 300 297 296 301 313 308 303 300 298 299 297 302 301 302 298 306 298 298 301 297 297 291 295 293 291 291 295 298 299 302 301 303 305 307 307 306 305 303 303 302 304 304 307
309 310 310 310 310 309 309 309 309 302 300 301 302 303 300 298 296 296 294 298 298 295 302 301 302 303 304 306 299 300 296 295 291 299 294 291 295 298 298 298 299 300 301 301 302 301 301 301 301 302 302 302 303 305
310 310 309 309 309 309 309 309 309 308 306 306 304 299 295 294 286 290 286 292 295 301 302 303 300 302 303 303 299 298 295 293 299 294 291 294 299 302 298 298 299 299 301 301 302 302 303 303 305 304 304 306 307 307
310 309 308 308 309 309 309 309 309 307 300 299 296 286 291 292 291 295 296 293 299 299 298 301 301 300 301 297 297 294 294 295 288 286 290 297 299 298 297 299 299 299 301 301 302 303 304 304 304 305 306 307 306 306
309 308 308 309 310 310 309 309 309 303 300 298 297 290 292 294 296 300 303 300 296 297 297 299 298 299 297 294 295 292 291 286 287 286 294 299 302 296 296 298 298 300 301 302 303 303 303 304 304 304 305 305 306 306
308 308 306 309 309 309 308 306 304 303 302 299 294 292 293 291 291 294 294 294 295 295 294 294 292 291 290 291 292 291 288 285 293 294 298 301 299 297 297 299 300 301 302 302 303 302 302 302 303 303 304 304 304 306
308 303 309 308 308 308 307 302 303 302 303 296 293 295 294 292 292 293 293 294 295 293 289 288 287 288 291 288 292 292 291 293 295 296 301 300 298 297 300 301 301 302 302 302 302 302 301 300 302 301 300 300 302 304
301 304 308 308 307 304 304 302 302 300 294 294 291 293 293 294 293 293 294 293 292 290 289 287 289 287 284 288 289 292 294 296 297 300 301 303 303 303 303 302 303 303 301 301 301 300 300 300 299 298 299 301 303 304
303 305 308 308 306 302 300 302 302 294 294 294 293 293 294 295 295 295 294 293 292 292 291 287 285 279 281 288 290 291 295 296 297 299 301 304 304 302 302 303 303 302 302 302 301 301 301 303 300 301 300 302 302 303
307 308 308 310 308 299 299 299 301 295 293 293 293 293 294 293 294 294 293 293 292 291 289 286 285 286 288 293 297 297 297 298 299 298 298 302 303 302 302 302 301 301 301 302 302 300 301 300 300 300 301 302 302 302
305 306 309 305 302 300 299 298 297 297 298 293 293 294 292 293 293 293 292 293 290 289 288 289 289 290 294 298 298 300 300 301 299 299 299 299 302 302 302 302 303 302 300 300 301 300 300 300 302 302 303 302 303 301
301 309 302 304 301 302 301 301 298 297 297 294 294 294 291 291 291 292 293 291 289 290 291 290 291 293 293 295 299 300 302 302 301 301 300 301 300 301 301 302 299 299 300 299 300 300 301 302 303 303 303 302 301 304
306 305 302 302 299 294 294 301 297 295 291 292 294 293 292 291 292 294 290 291 291 293 293 293 294 295 294 295 298 299 299 299 298 299 300 300 301 302 302 301 301 301 299 300 302 302 302 299 301 302 302 303 303 302
307 306 303 298 297 292 300 299 297 295 295 292 291 291 291 292 293 291 289 292 292 293 294 294 295 294 294 294 293 294 296 296 295 295 296 297 297 297 298 299 299 300 300 301 300 301 302 303 300 302 302 302 302 302
299 296 295 287 296 296 296 295 295 293 291 293 293 293 293 293 290 288 288 289 291 292 294 296 296 296 294 294 294 295 296 297 296 296 297 297 296 296 297 296 296 296 298 299 299 300 300 300 302 302 302 302 302 301
292 295 291 297 296 295 294 291 292 293 292 292 294 295 295 292 291 289 290 292 292 293 295 296 296 295 295 296 296 296 298 298 297 296 297 297 297 297 297 296 296 297 298 299 298 298 298 299 299 300 301 301 297 301
290 293 297 300 298 297 294 294 296 293 292 293 294 294 293 290 290 293 294 293 294 295 297 300 299 298 297 297 298 299 299 299 299 299 298 297 298 300 299 297 297 299 300 300 300 299 299 299 300 300 301 302 302 302
297 297 296 299 298 298 296 296 295 294 294 295 296 293 294 293 292 295 294 296 296 296 297 298 299 299 298 298 299 298 298 298 298 295 295 295 294 297 298 298 299 295 301 303 301 300 300 300 299 300 301 301 301 302
296 299 300 297 298 298 297 297 297 297 297 296 295 293 294 296 298 295 295 295 296 296 296 296 297 297 297 296 296 296 297 296 297 296 295 293 294 295 296 297 297 299 300 301 294 298 300 300 300 301 301 300 301 301
297 301 299 300 297 296 297 300 297 295 297 297 296 294 294 294 296 295 294 295 295 296 297 297 296 297 297 296 295 294 295 297 298 297 294 294 294 296 297 298 298 298 300 301 301 299 295 298 296 300 299 300 299 300
302 301 300 300 299 300 298 295 295 297 297 297 297 294 294 295 296 295 295 296 296 295 295 295 295 295 296 295 295 295 295 295 294 297 297 296 296 296 298 299 299 299 299 299 300 299 299 298 298 298 298 297 298 297
300 298 298 296 296 299 299 296 295 295 296 296 296 295 296 294 294 295 296 295 295 295 296 296 295 295 296 299 299 298 295 300 297 296 297 296 296 297 298 298 298 298 298 298 299 299 298 298 298 298 298 300 300 299
299 299 299 298 297 298 298 296 296 295 295 295 294 295 295 295 293 297 298 299 300 298 297 298 299 299 297 297 298 298 295 298 297 293 293 293 293 294 297 298 299 299 299 299 299 299 299 299 298 299 299 300 299 300
Wind_Speed
19 21 21 21 19 18 19 20 20 20 19 18 17 18 18 17 14 6 3 7 4 2 3 2 3 2 1 2 4 3 4 2 2 2 4 5 4 7 7 6 7 8 6 3 3 3 5 3 2 7 5 2 14 11
20 20 19 19 19 18 18 20 20 21 21 20 18 16 16 16 15 12 4 4 5 4 2 2 4 5 2 1 4 1 2 2 4 1 1 2 1 1 4 4 1 5 7 7 4 4 2 3 5 2 4 14 6 11
20 19 18 19 18 17 17 19 21 23 23 20 17 13 13 13 15 14 3 2 2 2 3 2 7 10 5 8 6 3 2 4 3 3 3 2 3 2 5 5 1 4 2 5 5 3 5 4 3 5 4 11 9 9
20 18 17 17 17 17 17 18 20 21 20 19 13 7 8 10 14 16 4 3 2 1 3 5 2 4 4 6 9 10 4 1 0 1 3 2 2 3 3 4 4 5 4 6 2 3 8 7 7 11 8 10 10 6
20 18 17 17 16 16 17 17 17 18 18 18 15 11 5 5 10 6 4 3 3 3 2 3 4 5 3 7 9 9 7 4 2 2 1 4 3 3 3 1 3 4 8 6 7 12 12 9 7 10 13 9 8 9
19 18 17 16 16 16 16 16 16 15 14 12 15 15 8 2 7 3 2 3 7 2 4 2 3 4 3 5 7 9 7 3 3 4 4 2 2 5 1 4 5 7 6 8 6 13 3 7 10 5 7 8 6 8
19 18 16 15 15 16 16 17 16 15 13 11 10 11 11 7 2 1 1 2 5 6 2 3 4 2 4 3 3 3 6 3 3 3 3 3 1 5 3 4 6 7 6 4 9 14 6 8 9 9 10 8 7 6
19 18 16 15 14 14 15 16 17 17 18 15 11 8 8 1 2 1 1 2 4 3 1 3 3 2 6 3 3 5 4 4 4 3 1 2 2 3 5 9 3 3 8 10 8 4 9 12 11 7 8 11 8 7
18 17 15 14 14 14 14 15 16 18 19 13 6 7 2 1 2 2 4 8 0 1 2 2 1 1 3 1 2 2 2 3 1 3 3 5 3 6 10 11 7 10 9 11 7 11 14 15 11 10 10 8 10 8
17 15 14 13 13 14 13 14 16 19 18 6 3 3 3 2 3 5 1 0 1 1 2 4 2 2 1 1 2 3 1 3 2 3 3 5 5 5 6 7 13 11 14 18 13 7 10 9 12 11 10 9 9 9
17 15 13 12 13 13 12 12 14 19 6 4 4 1 3 3 1 2 2 2 2 2 1 2 2 2 3 2 2 2 3 3 3 5 4 2 1 4 9 2 6 6 8 7 10 14 15 18 14 11 8 8 8 8
17 14 12 12 13 13 12 11 10 4 1 3 1 2 2 1 2 2 2 2 2 2 4 2 1 2 2 2 2 3 4 3 3 2 2 2 1 6 10 5 3 7 7 7 5 9 8 8 8 8 7 7 7 7
13 10 11 12 13 13 12 12 11 9 6 1 1 1 3 1 6 3 4 4 3 2 3 4 2 1 3 4 2 3 4 1 1 2 2 1 4 6 6 5 1 4 8 8 9 7 9 8 7 6 6 4 6 6
10 11 12 13 14 13 11 11 10 4 0 1 2 5 2 3 2 2 2 3 3 3 5 2 0 2 2 3 2 2 2 0 3 2 1 2 8 7 6 1 5 5 9 10 10 10 9 8 7 6 6 6 6 6
10 11 11 11 11 11 10 9 6 2 2 1 0 2 2 2 3 3 3 2 3 3 3 2 1 0 2 1 2 2 0 3 1 1 2 5 6 3 3 6 7 8 7 9 8 7 7 7 7 5 5 5 5 5
11 11 3 9 11 13 13 4 2 2 1 1 0 2 2 3 4 4 3 4 2 4 1 2 2 3 4 2 3 4 2 1 2 3 4 5 3 3 3 7 8 8 8 8 7 6 6 6 6 6 5 4 4 5
7 3 4 11 14 14 2 2 1 2 2 1 1 1 2 1 3 3 2 3 4 3 2 2 3 1 2 1 1 2 2 2 2 4 4 3 4 3 5 8 9 9 8 7 5 5 5 4 6 5 6 2 3 3
3 4 10 12 11 5 2 1 0 0 1 1 2 3 2 2 2 1 2 2 3 2 2 1 2 2 1 2 2 1 1 2 2 3 3 2 4 5 6 9 8 8 8 7 4 4 5 5 5 3 6 4 5 4
6 8 15 14 4 2 3 2 2 1 3 2 2 1 1 1 2 1 1 1 2 2 3 3 4 1 2 1 1 2 2 1 1 2 2 2 4 5 4 5 6 6 8 4 3 3 2 3 4 3 3 4 4 3
14 16 14 8 6 1 2 3 1 1 2 3 1 1 2 2 1 1 0 1 2 2 3 2 2 3 3 2 2 2 3 1 1 1 1 2 4 7 4 4 4 5 4 4 4 3 3 3 3 3 2 3 3 3
6 3 4 2 1 1 2 2 2 3 0 1 1 2 2 1 1 0 1 1 3 1 0 3 2 2 2 1 0 1 2 2 1 1 1 3 4 5 4 4 4 3 3 3 4 3 4 3 3 3 3 3 3 3
3 6 1 1 1 0 3 2 2 2 1 1 0 1 1 1 2 2 2 3 1 2 3 3 2 2 1 2 3 3 3 4 4 4 4 6 7 6 4 2 3 3 3 3 3 3 3 2 3 3 4 3 3 4
7 1 1 1 1 2 6 1 1 2 1 3 2 2 2 2 2 1 2 2 2 1 2 2 2 2 3 2 3 3 4 4 3 3 3 4 4 4 2 2 2 2 3 1 2 3 3 4 3 4 4 3 3 4
2 2 2 1 2 4 2 1 1 2 1 1 1 3 2 3 1 2 1 1 1 1 1 3 4 3 3 2 1 1 0 2 3 2 1 4 3 1 1 1 2 3 2 2 3 3 3 3 4 3 3 3 3 4
2 3 3 4 2 1 2 2 1 1 2 2 2 3 2 2 1 1 2 2 3 3 3 4 3 3 3 1 1 2 2 3 3 3 2 2 1 2 3 3 3 3 2 3 3 3 2 3 3 4 3 4 5 5
2 3 4 3 1 2 2 1 2 3 2 2 4 2 1 1 0 3 4 5 5 5 5 6 5 3 2 4 3 2 3 4 4 2 3 5 5 4 3 3 2 2 3 3 4 4 4 3 3 5 5 7 7 7
3 4 4 3 1 2 1 1 1 1 3 4 3 1 1 1 3 4 2 3 4 5 6 6 6 6 5 4 4 3 2 5 5 3 1 3 4 5 5 4 5 5 4 5 4 4 5 5 4 4 4 4 5 5
5 2 4 2 3 3 2 2 3 5 4 3 2 2 3 5 4 3 5 4 4 5 4 4 3 3 3 3 2 2 2 3 3 1 0 1 2 2 4 3 4 6 5 5 4 4 4 4 4 4 4 4 3 4
3 3 2 3 3 3 4 4 4 4 4 4 3 2 3 3 2 2 2 4 4 5 4 3 3 3 3 1 2 3 4 5 6 4 4 2 2 2 2 2 3 3 4 5 6 5 6 6 4 3 4 2 1 2
5 4 3 3 3 5 5 7 4 3 3 3 3 1 3 2 2 1 4 4 5 5 5 4 2 4 4 4 2 1 3 4 4 5 5 4 5 2 3 3 3 3 4 4 5 5 7 5 5 2 3 2 1 1
1 3 3 3 4 3 3 3 1 1 2 2 1 3 2 2 3 1 2 3 4 4 4 3 4 4 4 4 4 4 4 4 5 5 2 1 4 4 4 3 3 4 4 5 5 5 5 3 3 4 4 3 3 2
3 5 2 2 4 4 1 2 1 1 1 1 1 2 1 3 0 3 4 5 4 3 5 4 5 5 8 5 5 4 5 4 7 6 8 5 5 5 4 4 4 4 4 4 3 4 3 4 3 4 5 5 4 4
1 1 2 2 3 3 2 3 1 1 0 1 3 4 4 5 5 5 2 4 7 8 6 6 6 3 6 8 7 5 5 4 7 11 12 11 11 9 6 4 5 5 6 4 4 4 5 5 5 5 5 6 6 6
Wind_Direction
326 323 322 319 320 320 322 321 318 315 312 303 284 266 250 236 215 182 257 202 219 221 271 238 271 185 116 157 151 276 347 338 354 156 167 207 172 208 196 203 179 159 148 173 97 137 277 121 66 160 195 103 159 177
323 323 323 326 327 330 327 325 322 319 318 307 290 268 247 234 211 188 237 198 200 238 301 318 275 255 226 228 153 203 197 225 237 89 268 293 166 120 147 215 267 204 176 164 157 217 337 334 286 343 176 142 135 143
323 327 329 327 331 332 331 329 330 330 327 321 306 259 243 224 209 190 201 149 154 271 287 210 236 255 194 205 194 202 247 233 263 179 190 224 259 97 162 228 258 357 6 114 89 24 310 350 326 79 76 111 121 126
325 327 324 323 326 327 327 331 337 344 351 353 355 319 258 221 204 195 197 164 177 88 249 250 136 222 222 178 200 206 190 90 288 350 237 206 185 158 227 230 180 200 108 106 138 101 43 311 288 123 91 112 109 98
324 323 322 319 319 322 324 329 338 351 358 3 6 2 339 233 196 190 185 187 241 211 273 257 304 239 202 173 204 204 176 155 189 269 230 226 225 64 315 333 243 217 155 140 213 177 157 205 191 134 131 139 141 122
322 322 321 314 317 322 324 325 335 341 355 3 15 14 9 83 157 130 201 177 200 195 303 293 281 252 169 177 186 185 189 164 188 182 217 245 242 89 290 242 245 265 183 178 221 175 152 161 127 115 123 126 101 115
319 321 318 313 313 318 323 324 327 328 327 322 328 3 22 50 53 92 121 148 192 164 189 275 266 239 148 139 164 159 185 193 176 205 221 175 107 101 261 220 260 200 210 166 153 117 83 169 158 146 132 128 111 102
317 315 313 309 311 315 320 322 324 325 323 319 297 314 346 349 121 284 206 174 158 96 95 276 254 268 174 172 204 176 185 173 171 165 280 96 41 109 252 253 170 302 124 141 168 34 132 116 125 121 121 128 129 141
313 311 310 306 310 317 322 320 322 324 324 324 297 299 333 18 23 344 112 140 249 123 225 248 245 254 166 235 179 115 156 129 37 128 200 105 219 212 219 212 177 182 165 162 112 113 129 137 141 128 133 138 147 163
309 311 307 304 311 316 318 321 325 325 324 331 359 38 14 356 138 121 163 257 250 211 223 248 175 230 322 331 81 126 136 152 168 193 111 212 235 262 254 202 180 167 144 123 116 113 120 131 148 150 160 163 165 172
311 310 300 304 311 312 315 320 330 331 9 25 16 21 268 298 299 248 240 228 189 258 224 268 323 208 195 216 160 218 169 175 122 199 209 202 317 339 350 138 132 150 164 147 159 150 162 159 162 163 160 168 162 167
308 299 294 304 308 309 309 312 329 4 206 252 258 287 314 19 254 282 359 329 0 1 301 294 281 246 236 207 179 193 232 170 107 180 145 139 203 336 341 308 211 154 139 102 98 130 127 130 146 148 150 163 171 183
299 292 297 302 303 303 302 303 305 290 305 211 212 286 62 263 32 42 338 315 335 302 331 319 336 337 333 8 38 11 34 47 351 32 108 60 345 325 310 292 192 133 116 112 113 111 117 116 117 133 143 154 145 147
298 299 301 301 302 302 297 293 298 330 11 322 33 342 98 323 353 253 287 243 290 323 323 313 237 316 306 6 22 20 300 37 63 89 110 347 341 324 321 63 110 145 132 123 118 112 112 123 127 125 135 143 136 137
304 302 305 299 310 318 310 296 302 135 161 256 208 353 358 286 276 300 311 324 308 300 334 3 15 285 344 36 29 347 78 46 74 247 331 334 341 2 44 66 82 93 94 99 101 100 109 119 121 114 118 118 115 122
315 310 249 322 325 317 307 302 110 125 231 206 132 28 323 30 324 351 339 306 336 332 4 29 20 55 37 348 4 18 45 82 8 348 308 316 28 8 82 92 91 85 84 89 89 98 100 116 125 122 105 110 128 136
310 244 325 335 331 320 5 88 70 230 281 112 329 59 148 172 230 268 280 283 325 33 33 34 42 57 312 13 68 20 40 28 321 314 322 57 94 97 88 86 86 90 91 92 86 121 105 105 110 105 112 111 119 136
244 283 322 328 340 332 337 105 192 68 285 206 102 249 213 191 207 285 305 322 37 67 64 99 147 56 61 337 42 14 337 315 272 313 334 77 84 79 91 92 82 88 83 69 90 86 100 120 117 119 126 123 105 95
271 293 297 302 300 342 344 306 125 244 241 213 226 237 189 212 233 252 152 51 93 120 93 40 66 153 239 292 262 271 263 252 323 323 333 127 100 95 88 108 110 103 101 107 66 84 113 88 113 116 118 104 94 92
282 282 281 290 152 92 314 284 87 173 254 241 93 228 197 200 215 194 271 41 69 74 55 75 187 214 198 236 246 269 270 255 226 323 353 112 132 126 136 128 108 109 102 102 105 120 113 83 69 96 108 115 110 113
320 289 33 86 77 112 232 285 280 216 28 186 286 149 268 3 331 259 235 134 62 92 187 203 193 223 275 29 330 328 311 199 171 193 169 117 107 97 94 87 101 104 111 121 115 107 96 118 151 150 130 116 109 86
272 327 350 20 16 333 267 238 225 293 19 262 43 81 304 294 270 240 159 69 142 238 195 167 179 146 85 14 12 49 49 68 68 61 48 102 109 105 91 76 76 96 113 142 136 136 135 143 128 108 107 108 144 108
308 175 290 11 321 26 264 57 342 358 358 314 4 323 267 264 235 90 54 200 236 230 174 138 142 116 111 72 67 62 55 79 74 60 65 72 85 90 105 75 71 107 121 192 167 150 161 166 149 124 120 119 100 110
265 274 289 288 158 256 322 300 14 4 350 338 267 269 232 223 141 69 226 250 229 93 104 116 121 92 57 65 62 285 319 98 106 77 85 112 108 169 145 302 325 323 285 174 201 201 170 156 146 144 147 134 149 147
293 286 99 295 253 288 270 327 333 10 270 271 282 274 245 108 140 180 214 248 176 175 164 149 147 144 142 189 267 249 198 163 147 157 227 178 116 5 323 294 287 269 168 142 147 141 152 145 164 160 168 165 168 173
259 241 156 235 233 181 220 236 224 227 234 266 246 264 67 106 325 247 229 188 182 172 176 172 165 161 211 199 182 204 216 172 146 189 250 183 189 188 216 236 273 298 185 169 139 151 147 145 161 178 182 185 181 167
247 269 234 226 153 119 258 259 256 201 237 221 237 221 179 263 252 248 206 203 163 197 182 165 166 180 195 193 219 233 186 170 182 188 230 230 206 192 176 185 215 241 168 164 165 161 165 166 169 169 172 172 172 168
231 239 224 156 201 206 237 211 209 223 231 219 118 212 209 205 238 225 203 189 174 144 140 154 164 161 175 219 213 148 181 182 162 99 272 34 9 225 207 211 225 203 138 146 153 144 155 166 165 151 162 153 164 187
243 241 181 254 218 222 225 210 236 231 198 156 181 231 249 233 238 187 212 164 130 122 133 169 221 160 194 226 243 207 165 156 140 168 224 262 339 340 79 133 133 108 103 101 92 133 157 152 151 155 165 177 147 86
251 172 205 219 212 227 235 177 223 214 189 182 154 42 354 324 274 171 119 120 130 168 191 188 160 171 205 174 198 184 201 197 182 156 168 205 219 194 133 111 118 137 145 135 119 92 90 102 110 98 118 129 154 96
183 163 242 228 255 248 216 198 202 153 153 145 149 123 184 299 338 61 185 175 141 123 135 187 226 212 176 178 180 191 227 227 206 200 128 213 156 157 161 159 147 134 136 139 142 131 123 116 118 126 141 182 217 201
183 212 206 260 283 290 312 188 194 178 306 134 148 98 81 66 255 267 199 128 122 157 216 182 189 229 208 215 200 208 205 167 171 181 171 185 192 179 172 155 154 154 148 143 156 134 142 144 156 194 206 210 225 233
208 198 247 286 305 287 280 123 83 296 342 225 230 191 182 165 209 246 196 192 171 183 198 211 216 215 188 194 193 198 190 196 181 174 175 183 180 163 161 168 164 168 166 165 167 153 167 178 201 220 233 230 235 221